User: anonymous   Login
Location: Pine Mountain Observatory
(43.7910°N, 120.9377°W)
Time: 23:42:29
(UTC-07:00)
Language:

Meteor 2-19 Rocket - Orbit

View from above orbital plane
View from above orbital plane
View from above satellite
View from above satellite

Ground track
Ground track

The orbit data is extracted from the following two-line orbital elements,

1 20671U 90057B   17207.89265861 +.00000022 +00000-0 +64641-5 0  9999
2 20671 082.5488 340.5492 0014733 200.8716 159.1844 13.84608781368287
Epoch (UTC): 26 July 2017 21:25:25
Eccentricity: 0.0014733
inclination: 82.5488°
perigee height: 937 km
apogee height: 958 km
right ascension of ascending node: 340.5492°
argument of perigee: 200.8716°
revolutions per day: 13.84608781
mean anomaly at epoch: 159.1844°
orbit number at epoch: 36828

The dashed part of the orbit path shows where the satellite is in the earth's shadow,  

DLR